This is the latest recevied weather packets stored in our database for station/object N9DMT-13. If no packets are shown the sender has not sent any weather packets the latest 1 day(s).
| Time | Temp. | Humidity | Pressure | Rain* | Wind** | Luminosity | Snow |
|---|---|---|---|---|---|---|---|
| 1778044786 | 0.56° C | 84% | 980 hPa | 0 mm | - | - | - |
| 1778044185 | 1.11° C | 84% | 980.1 hPa | 0 mm | - | - | - |
| 1778043884 | 1.11° C | 84% | 979.8 hPa | 0 mm | - | - | - |
| 1778043583 | 1.11° C | 83% | 979.9 hPa | 0 mm | - | - | - |
| 1778043282 | 1.11° C | 83% | 979.9 hPa | 0 mm | - | - | - |
| 1778042981 | 1.11° C | 83% | 980 hPa | 0 mm | - | - | - |
| 1778042681 | 1.11° C | 82% | 979.9 hPa | 0 mm | - | - | - |
| 1778042380 | 1.11° C | 82% | 979.9 hPa | 0 mm | - | - | - |
| 1778042079 | 1.67° C | 81% | 979.8 hPa | 0 mm | - | - | - |
| 1778041477 | 1.67° C | 79% | 980 hPa | 0 mm | - | - | - |
| 1778041177 | 1.67° C | 79% | 979.8 hPa | 0 mm | - | - | - |
| 1778040876 | 1.67° C | 79% | 979.9 hPa | 0 mm | - | - | - |
| 1778040576 | 2.22° C | 79% | 979.8 hPa | 0 mm | - | - | - |
| 1778040275 | 2.22° C | 79% | 979.9 hPa | 0 mm | - | - | - |
| 1778039974 | 2.22° C | 78% | 979.8 hPa | 0 mm | - | - | - |
| 1778039373 | 2.78° C | 77% | 979.5 hPa | 0 mm | - | - | - |
| 1778039072 | 2.78° C | 76% | 979.5 hPa | 0 mm | - | - | - |
| 1778038771 | 2.78° C | 75% | 979.7 hPa | 0 mm | - | - | - |
| 1778038470 | 3.33° C | 76% | 979.7 hPa | 0 mm | - | - | - |
| 1778038169 | 3.33° C | 74% | 979.7 hPa | 0 mm | - | - | - |
| 1778037867 | 3.33° C | 75% | 979.6 hPa | 0 mm | - | - | - |
| 1778037567 | 3.33° C | 74% | 979.6 hPa | 0 mm | - | - | - |
| 1778037266 | 3.89° C | 73% | 979.6 hPa | 0 mm | - | - | - |
| 1778036965 | 3.89° C | 72% | 979.6 hPa | 0 mm | - | - | - |
| 1778036364 | 4.44° C | 71% | 979.8 hPa | 0 mm | - | - | - |
* Rain latest hour (hover to see other rain measurements)
** Current wind speed in m/s (hover to see current wind gust speed)